This demonstration page uses our WeatherBlox Daily Observations layout. Learn more.

Left ArrowRight Arrow

Hourly Observations for March 26, 2022

Temp ( °F °C ) Dew Point ( °F °C ) Humidity (%) Winds ( mph kmh ) Pressure ( in mb ) Visibility ( mi km ) Precip ( " mm )
12:53 am 00:53 Clear 58 14.4 5 -15 12 12 ESE 7 11 29.96 1014 10 16 0.00 0.00
1:53 am 01:53 Clear 59 15 2 -16.7 10 10 SE 10 17 29.94 1014 10 16 0.00 0.00
2:53 am 02:53 Clear 56 13.3 1 -17.2 10 10 ESE 10 17 29.94 1014 10 16 0.00 0.00
3:53 am 03:53 Clear 58 14.4 1 -17.2 10 10 SE 10 17 29.92 1013 10 16 0.00 0.00
4:53 am 04:53 Clear 55 12.8 1 -17.2 11 11 ESE 9 15 29.91 1013 10 16 0.00 0.00
5:53 am 05:53 Clear 44 6.7 -1 -18.3 15 15 NNW 3 6 29.94 1014 10 16 0.00 0.00
6:53 am 06:53 Clear 41 5 2 -16.7 19 19 N 7 11 29.95 1014 10 16 0.00 0.00
7:53 am 07:53 Sunny 40 4.4 2 -16.7 20 20 N 9 15 29.98 1015 10 16 0.00 0.00
8:53 am 08:53 Hazy 46 7.8 4 -15.6 17 17 N 6 9 30.01 1016 6 10 0.00 0.00
9:53 am 09:53 Sunny 57 13.9 4 -15.6 11 11 N 6 9 29.99 1016 10 16 0.00 0.00
10:53 am 10:53 Sunny 65 18.3 5 -15 9 9 NW 3 6 29.98 1015 10 16 0.00 0.00
11:53 am 11:53 Sunny 72 22.2 6 -14.4 7 7 Calm 29.97 1015 10 16 0.00 0.00
12:53 pm 12:53 Sunny 78 25.6 6 -14.4 6 6 Calm 29.96 1014 10 16 0.00 0.00
1:53 pm 13:53 Sunny 81 27.2 5 -15 5 5 VRB 7 11 29.92 1013 10 16 0.00 0.00
2:53 pm 14:53 Sunny 85 29.4 3 -16.1 4 4 SSE 5 7 29.88 1012 10 16 0.00 0.00
3:53 pm 15:53 Sunny 87 30.6 2 -16.7 4 4 undefined N/A 29.84 1011 10 16 0.00 0.00
4:53 pm 16:53 Sunny 87 30.6 1 -17.2 3 3 VRB 6 9 29.82 1010 10 16 0.00 0.00
5:53 pm 17:53 Sunny 88 31.1 -1 -18.3 3 3 SSW 8 13 29.81 1010 10 16 0.00 0.00
6:53 pm 18:53 Sunny 87 30.6 0 -17.8 3 3 WSW 5 7 29.82 1010 10 16 0.00 0.00
7:53 pm 19:53 Sunny 84 28.9 1 -17.2 4 4 SSW 3 6 29.83 1010 10 16 0.00 0.00
8:53 pm 20:53 Clear 75 23.9 2 -16.7 6 6 SE 8 13 29.84 1010 10 16 0.00 0.00
9:53 pm 21:53 Clear 71 21.7 2 -16.7 6 6 SE 8 13 29.84 1010 10 16 0.00 0.00

Powered by AerisWeather